Regional Weather Roundup
Issued by NWS

Home | Current Version | Previous Version | Graphics & Text | Print | Product List | Glossary On
Versions: 1 2 3 4 5 6 7 8 9 10 11 12 13 14 15 16 17 18 19 20 21 22 23 24 25 26 27 28 29 30 31 32 33 34 35 36 37 38 39 40 41 42 43 44 45 46 47 48 49 50
000
ASUS44 KMEG 241710
RWRTN
TENNESSEE HOURLY STATE WEATHER ROUNDUP
NATIONAL WEATHER SERVICE MEMPHIS TN
1200 PM CDT MON JUL 24 2017

TNZ002-004-019-021-049-052-054-088>092-241800-
WEST TENNESSEE

CITY           SKY/WX    TMP DP  RH WIND       PRES   REMARKS
MEMPHIS INTL   PTSUNNY   86  74  67 SW7       29.96S HX  94
NWS MEMPHIS      N/A     87 N/A N/A MISG        N/A
JACKSON        FAIR      85  75  72 S3        29.96S HX  93
SOMERVILLE       N/A     86  73  66 VRB5      29.96S HX  93
COVINGTON      SUNNY     84  73  70 CALM      29.96S HX  91
UNION CITY     SUNNY     84  73  70 CALM      29.95S HX  91
BOLIVAR        SUNNY     88  72  58 CALM      29.96S HX  94
PARIS          SUNNY     84  75  74 CALM      29.96S HX  92
HUNTINGDON     SUNNY     84  73  70 CALM      29.96S HX  91
SELMER         MOSUNNY   84  75  74 CALM      29.97S HX  92
SAVANNAH       MOSUNNY   86  77  74 CALM      29.96S HX  97
$$

TNZ008-025-027-028-033-062-065-066-241800-
NORTH MIDDLE TENNESSEE

CITY           SKY/WX    TMP DP  RH WIND       PRES   REMARKS
NASHVILLE      CLOUDY    88  71  57 VRB7      29.98S HX  94
PORTLAND       MOSUNNY   86  75  70 SW7       29.97S HX  95
CLARKSVILLE    FAIR      86  73  65 VRB3      29.96S HX  93
SMYRNA         FAIR      85  71  63 SW3       29.99S HX  90
COOKEVILLE     SUNNY     84  72  65 CALM      30.00F
GALLATIN       SUNNY     86  73  66 SE3       30.00S HX  93
CROSSVILLE     FAIR      80  68  66 SW3       30.06S
$$

TNZ061-075-076-078-094-096-097-241800-
SOUTH MIDDLE TENNESSEE

CITY           SKY/WX    TMP DP  RH WIND       PRES   REMARKS
FAYETTEVILLE   MOSUNNY   84  73  70 VRB5      29.99F HX  91
TULLAHOMA      SUNNY     84  68  58 CALM      30.02S
WINCHESTER     SUNNY     84  70  61 CALM      30.01S
MCMINNVILLE    SUNNY     84  73  70 W5        30.01F HX  91
COLUMBIA       CLOUDY    86  73  66 VRB5      29.96S HX  93
SHELBYVILLE    SUNNY     82  73  74 S5        29.99F
$$

TNZ017-018-042-046-047-241800-
NORTHEAST TENNESSEE

CITY           SKY/WX    TMP DP  RH WIND       PRES   REMARKS
TRI CITIES     FAIR      82  69  64 SW6       30.02S
ELIZABETHTON   FAIR      81  68  65 W5        30.02S
$$

TNZ012-013-036-069-073-074-241800-
CENTRAL EAST TENNESSEE

CITY           SKY/WX    TMP DP  RH WIND       PRES   REMARKS
KNOXVILLE      PTSUNNY   84  70  62 SW8       29.99F
OAK RIDGE      PTSUNNY   85  69  58 CALM      30.01F
DOWNTOWN KNOXV MOSUNNY   84  72  65 VRB5      29.99S
GATLINBURG     MOSUNNY   88  70  55 VRB5      29.99F HX  92
MORRISTOWN     MOSUNNY   81  70  69 NW7       30.01S
JACKSBORO      MOSUNNY   82  73  74 S7        30.04S
$$

TNZ083-085-099-241800-
SOUTHEAST TENNESSEE

CITY           SKY/WX    TMP DP  RH WIND       PRES   REMARKS
CHATTANOOGA    PTSUNNY   87  69  54 NW7       29.99F HX  91
DAYTON         SUNNY     86  72  62 CALM      29.98F HX  92
$$

SKY/WX REPORTED AS FAIR MEANS FEW OR NO CLOUDS BELOW
12 THOUSAND FEET.





USA.gov is the U.S. government's official web portal to all federal, state and local government web resources and services.